sat.trackr.live / text

‹ back to catalog

STARLINK-31508

NORAD 59503 · 2024-071V

PAYLOAD ACTIVE UNKNOWN

§ Identity

Operator
Country
US
Launch date
2024-04-13
Launch site
AFETR
Launch vehicle
Mass (kg)
RCS (m²)

Purposes: comms

External: N2YO · Heavens-Above · Gunter

§ Orbital elements

Epoch: 2026-05-24T18:02:09.020256Z

Period
94.27 min
Inclination
43.0016°
Eccentricity
0.0001420
Mean motion
15.27558661 rev/d
Perigee alt
482.1 km
Apogee alt
484.1 km
Semi-major
6,861.2 km
B*
-4.8602e-5
RAAN
270.5884°
Arg perigee
271.1310°
Mean anomaly
88.9378°
Rev number
11,983

§ Raw data

STARLINK-315081 59503U 24071V   26144.75149329 -.00001598  00000+0 -48602-4 0  99912 59503  43.0016 270.5884 0001420 271.1310  88.9378 15.27558661119835

JSON: /api/v1/satellites/59503 · /tle

For live sub-satellite position, see the globe view (requires WebGL).

§ Visibility from observer

Set your observer location to see the next 7 days of passes ≥ 10°. The values pass through the URL so the page stays shareable.

No JS? Fill the form by hand. The geolocation button needs JavaScript.